Shelbyville, IN

1:09 AM EDT on May 01, 2017 (GMT -0400)
Shelbyville Municipal

Weather History for KGEZ - October, 2010

Change the Weather History Date:

Wednesday, October 13, 2010

  Actual Average Record
Temperature  
Mean Temperature 63 °F 55 °F  
Max Temperature 78 °F 67 °F 79 °F (2008)
Min Temperature 48 °F 43 °F 30 °F (2006)
Degree Days  
Heating Degree Days 2 11  
Month to date heating degree days 85 115  
Since 1 July heating degree days 130 200  
Cooling Degree Days 0 0  
Month to date cooling degree days 8 11  
Year to date cooling degree days 1329 910  
Growing Degree Days 14 (Base 50)    
Moisture  
Dew Point 51 °F    
Average Humidity 64    
Maximum Humidity 87    
Minimum Humidity 41    
Precipitation  
Precipitation 0.31 in 0.10 in 1.04 in (2014)
Month to date precipitation 0.62 1.37  
Year to date precipitation 33.33 34.82  
Sea Level Pressure  
Sea Level Pressure 29.97 in    
Wind  
Wind Speed 8 mph (NNW)    
Max Wind Speed 25 mph    
Max Gust Speed 32 mph    
Visibility 9 miles    
Events Rain , Thunderstorm    
T = Trace of Precipitation, MM = Missing Value Source: NWS Daily Summary

Daily Weather History Graph

Daily Weather History Graph

Search for Another Location

Airport or City:

Trip Planner

Search our weather history database for the weather conditions in past years. The results will help you decide how hot, cold, wet, or windy it might be!

Date:

Astronomy

Oct. 13, 2010 Rise Set
Actual Time 7:51 AM EDT 7:07 PM EDT
Civil Twilight 7:24 AM EDT 7:34 PM EDT
Nautical Twilight 6:52 AM EDT 8:05 PM EDT
Astronomical Twilight 6:21 AM EDT 8:36 PM EDT
Moon 2:10 PM EDT (10/13) 11:46 PM EDT (10/13)
Length of Visible Light 12h 09m
Length of Day
11h 15m
Waxing Crescent, 38% of the Moon is Illuminated
Oct 13
Waxing Crescent
Oct 14
First Quarter
Oct 22
Full
Oct 30
Last Quarter
Nov 6
New

Hourly Weather History & Observations

Time (EDT) Temp. Dew Point Humidity Pressure Visibility Wind Dir Wind Speed Gust Speed Precip Events Conditions
12:53 AM 57.0 °F 48.9 °F 74% 29.94 in 10.0 mi East 5.8 mph - N/A   Partly Cloudy
1:53 AM 57.0 °F 48.9 °F 74% 29.94 in 10.0 mi East 3.5 mph - N/A   Clear
2:53 AM 55.0 °F 48.0 °F 77% 29.94 in 10.0 mi East 8.1 mph - N/A   Clear
3:53 AM 52.0 °F 46.9 °F 83% 29.94 in 10.0 mi East 3.5 mph - N/A   Clear
4:53 AM 51.1 °F 46.9 °F 86% 29.94 in 10.0 mi East 5.8 mph - N/A   Clear
5:53 AM 50.0 °F 46.0 °F 86% 29.95 in 10.0 mi East 3.5 mph - N/A   Clear
6:53 AM 50.0 °F 46.0 °F 86% 29.96 in 10.0 mi ESE 4.6 mph - N/A   Clear
7:53 AM 52.0 °F 46.9 °F 83% 29.97 in 10.0 mi Calm Calm - N/A   Clear
8:53 AM 51.1 °F 46.9 °F 86% 29.99 in 10.0 mi Calm Calm - N/A   Clear
9:53 AM 61.0 °F 48.0 °F 62% 30.00 in 10.0 mi SE 4.6 mph - N/A   Partly Cloudy
10:53 AM 66.9 °F 48.0 °F 51% 29.99 in 10.0 mi South 8.1 mph - N/A   Clear
11:53 AM 71.1 °F 48.0 °F 44% 29.98 in 10.0 mi South 9.2 mph - N/A   Clear
12:53 PM 73.9 °F 48.9 °F 41% 29.97 in 10.0 mi South 9.2 mph - N/A   Clear
1:53 PM 75.9 °F 50.0 °F 40% 29.94 in 10.0 mi SSW 10.4 mph - N/A   Partly Cloudy
2:34 PM 77.0 °F 50.0 °F 39% 29.92 in 10.0 mi South 5.8 mph - N/A Thunderstorm Clear
2:49 PM 75.2 °F 51.8 °F 44% 29.91 in 10.0 mi SW 8.1 mph - N/A   Scattered Clouds
2:53 PM 73.9 °F 53.1 °F 48% 29.90 in 10.0 mi South 9.2 mph - 0.00 in Rain Light Rain
3:06 PM 73.4 °F 51.8 °F 47% 29.91 in 10.0 mi West 3.5 mph - 0.00 in Thunderstorm Mostly Cloudy
3:29 PM 60.8 °F 55.4 °F 82% 29.95 in 5.0 mi NW 20.7 mph 29.9 mph 0.03 in Rain , Thunderstorm Thunderstorms and Rain
3:48 PM 60.8 °F 55.4 °F 82% 29.96 in 2.5 mi WNW 13.8 mph 21.9 mph 0.13 in Rain , Thunderstorm Heavy Thunderstorms and Rain
3:53 PM 60.1 °F 54.0 °F 80% 29.95 in 3.0 mi WNW 12.7 mph - 0.14 in Rain , Thunderstorm Rain
4:02 PM 60.8 °F 55.4 °F 82% 29.95 in 5.0 mi NW 11.5 mph - 0.02 in Rain , Thunderstorm Light Rain
4:38 PM 60.8 °F 55.4 °F 82% 29.96 in 2.5 mi NNW 6.9 mph - 0.09 in Rain Heavy Rain
4:53 PM 61.0 °F 57.0 °F 87% 29.94 in 3.0 mi North 6.9 mph - 0.13 in Rain Rain
5:53 PM 62.1 °F 57.9 °F 86% 29.96 in 5.0 mi NNW 8.1 mph - 0.04 in   Scattered Clouds
6:53 PM 60.1 °F 55.0 °F 83% 29.99 in 10.0 mi NNW 9.2 mph - N/A   Mostly Cloudy
7:53 PM 60.1 °F 55.0 °F 83% 30.01 in 10.0 mi NNW 11.5 mph - N/A   Overcast
8:53 PM 59.0 °F 55.0 °F 87% 30.03 in 10.0 mi NW 10.4 mph - N/A   Overcast
9:05 PM 59.0 °F 55.4 °F 88% 30.03 in 10.0 mi NW 15.0 mph - 0.00 in Rain Light Rain
9:53 PM 57.9 °F 53.1 °F 84% 30.04 in 10.0 mi NNW 16.1 mph 21.9 mph 0.00 in   Overcast
10:17 PM 57.2 °F 50.0 °F 77% 30.04 in 10.0 mi NNW 13.8 mph - N/A   Overcast
11:53 PM 53.1 °F 46.0 °F 77% 30.04 in 10.0 mi NNW 12.7 mph - N/A   Clear